Location: Ferchesar
(52.6477°N, 12.4298°E)
Time: 22:56:44
(UTC+01:00)

S-56A Canister/Altair - Pass Details

Date: 12 December 2021
Orbit: 633 x 2499 km, 38.9° (Epoch: 16 January)

Event Time Altitude Azimuth Distance (km) Brightness Sun altitude
Rises 01:58:17 0° 267° (W) 5,094 - -53.3°
Reaches altitude 10° 02:02:56 10° 254° (WSW) 3,736 - -52.8°
Maximum altitude 02:09:22 22° 210° (SSW) 2,422 - -52.0°
Drops below altitude 10° 02:14:19 10° 162° (SSE) 2,768 - -51.4°
Sets 02:17:10 0° 146° (SE) 3,482 - -51.1°
